Flag for U.S.A. Weather past 2 weeks in Denver, Colorado, U.S.A.

Now
56 °F

Scattered clouds.


Feels Like: 54 °F
Forecast: 36 / 61 °F
Wind: 6 mph from South

Location: Buckley Air Force Base

Current Time: Apr 28, 2015 at 2:44:30 PM

Latest Report: Apr 28, 2015 at 1:58 PM


Visibility: 10 mi

Pressure: 30.18 "Hg

Humidity: 43%

Dew point: 33 °F

Location of DenverLocation

Historic Weather in Denver — Graph

°F

Denver temperature yesterday

Maximum temperature yesterday: 44 °F (at 5:58 PM)
Minimum temperature yesterday: 36 °F (at 6:58 AM)
Average temperature yesterday: 40 °F

Past Weeks' High & Low Weather Summary

 TemperatureHumidityPressure
High74 °F (Apr 14, 3:58 PM)100% (Apr 16, 7:58 AM)30.35 "Hg (Apr 16, 7:58 AM)
Low31 °F (Apr 20, 6:58 AM)9% (Apr 14, 1:58 PM)29.44 "Hg (Apr 15, 3:58 AM)
Average47 °F64%29.88 "Hg
* Reported Apr 13 12:58 PM — Apr 28 12:58 PM, Denver, Weather by CustomWeather, © 2015

Note: Actual official high and low records may vary slightly from our data, if they occured in-between our weather recording intervals... More about our weather records

Advertising

Denver weather history for previous 24 hours

 ConditionsComfort  
Time TempWeatherWind HumidityBarometerVisibility
12:58 PM
Tue, Apr 28
54 °FScattered clouds.1 mph45%30.22 "Hg10 mi
11:58 AM52 °FPartly sunny.5 mph47%30.25 "Hg10 mi
10:58 AM51 °FPartly sunny.6 mph49%30.27 "Hg10 mi
9:58 AM49 °FScattered clouds.3 mph55%30.28 "Hg10 mi
8:58 AM46 °FPassing clouds.2 mph65%30.30 "Hg10 mi
7:58 AM43 °FPassing clouds.3 mph93%30.31 "Hg10 mi
6:58 AM35 °FPassing clouds.6 mph100%30.34 "Hg10 mi
5:58 AM35 °FPassing clouds.3 mph100%30.32 "Hg10 mi
4:58 AM38 °FPassing clouds.1 mph100%30.32 "Hg9 mi
3:58 AM39 °FFog.1 mph100%30.33 "Hg5 mi
2:58 AM40 °FPartly cloudy.No wind100%30.33 "Hg10 mi
1:58 AM40 °FPassing clouds.No wind100%30.33 "Hg10 mi
12:58 AM39 °FPassing clouds.5 mph100%30.35 "Hg10 mi
11:58 PM
Mon, Apr 27
40 °FPassing clouds.3 mph100%30.33 "Hg10 mi
10:58 PM41 °FPassing clouds.No wind99%30.33 "Hg10 mi
9:58 PM42 °FPassing clouds.No wind99%30.31 "Hg10 mi
8:58 PM42 °FMostly cloudy.2 mph99%30.30 "Hg10 mi
7:58 PM43 °FOvercast.5 mph98%30.30 "Hg10 mi
6:58 PM44 °FMore clouds than sun.3 mph93%30.26 "Hg10 mi
5:58 PM44 °FMore clouds than sun.6 mph89%30.26 "Hg10 mi
4:58 PM44 °FMore clouds than sun.6 mph99%30.25 "Hg10 mi
3:58 PM42 °FCloudy.7 mph100%30.27 "Hg10 mi
2:58 PM42 °FDrizzle. Mostly cloudy.8 mph99%30.26 "Hg10 mi
Weather by CustomWeather, © 2015

See weather overviewHow to use our weather pages